Location: Eimen
(51.8766°N, 9.7806°E)
Time: 07:40:57
(UTC+00:00)

Cosmos 2221 Rocket - Pass Details

Date: 16 August 2024
Orbit: 618 x 644 km, 82.5° (Epoch: 09 September)

Event Time Altitude Azimuth Distance (km) Brightness Sun altitude
Rises 03:18:29 0° 341° (NNW) 2,970 7.3 -7.5°
Reaches altitude 10° 03:20:56 10° 331° (NNW) 2,054 6.3 -7.2°
Maximum altitude 03:24:55 30° 271° (W) 1,149 4.5 -6.6°
Drops below altitude 10° 03:28:51 10° 210° (SSW) 2,032 5.7 -6.1°
Sets 03:31:16 0° 200° (SSW) 2,933 6.6 -5.8°
Enters shadow 03:31:22 - 200° (SSW) 2,968 6.6 -5.8°
